MTG-S1

导读

MTG-S1是欧洲气象卫星组织与欧空局联合研制的首颗地球静止轨道高光谱探测卫星,于2025年7月1日由美国SpaceX猎鹰9号火箭,从肯尼迪航天中心发射升空。它将定位于赤道3.6万公里轨道,每15分钟扫描欧洲及北非,结合Sentinel-4可实时监测空气污染,数据量达前代50倍,大幅提升极端天气预警能力,预计经在轨校准后正式投入使用。

基本信息
目录编号:
64723
目录名称:
MTG-S1
国际标识:
2025-143A
轨道中心:
EARTH
卫星名称:
MTG-S1
卫星全名:
MTG-S1
卫星状态:
在轨 (已飞行431 天)
发射日期:
2025-07-01 UTC
国别 :
美国 (US)
星等 :
--
轨道信息
数据来源 国际轨道数据 AOE轨道数据
星历时间 2026-09-05T13:41:50+0800
7小时前
查看轨道信息
2026-09-02T10:00:00+0800
3天前
查看轨道信息
半长轴 42164.112km 42164.168km
偏心率 0.0004064 0.0003967
轨道倾角 0.596° 0.597°
近地点辐角 252.747° 252.295°
升交点赤经 346.607° 345.953°
平近点角 190.151° 132.664°
近地点 35768.839km 35769.304km
远地点 35803.111km 35802.758km
周期 1436.065分钟 1436.068分钟
每日圈数 1.00274 1.002738
详细信息
使用方式:
暂无
2D轨道图
3D轨道图
轨道高度分析图
轨道倾角分析图
轨道综合分析图
查看轨道综合分析图